User: anonymous   Login
Location: ??????
(36.0418°N, 43.6351°E)
Time: 15:21:38
(UTC+00:00)
Language:

Sakura Rocket - Orbit

View from above orbital plane
View from above orbital plane
View from above satellite
View from above satellite

Ground track
Ground track

The orbit data is extracted from the following two-line orbital elements,

1 10517U 77118B   21138.06671872  .00000468  00000-0  67606-4 0  9997
2 10517  28.6595 138.2433 0845426 351.6955   7.0359 13.40014806101203
Epoch (UTC): 18 May 2021 01:36:04
Eccentricity: 0.0845426
inclination: 28.6595°
perigee height: 476 km
apogee height: 1742 km
right ascension of ascending node: 138.2433°
argument of perigee: 351.6955°
revolutions per day: 13.40014806
mean anomaly at epoch: 7.0359°
orbit number at epoch: 10120

The dashed part of the orbit path shows where the satellite is in the earth's shadow,  

DLR